GW5126 Weather Reports


time (UTC)temp
C
wind
direction
speed
KPH
gust
KPH
rain 1hr
cm
rain 24hr
cm
rain mn
cm
humidity
%
barometer
mb
20260507012911 12 329 0.0 0.0 0.00 0.00 0.00 89 1012.8
20260507012408 12 328 0.0 0.0 0.00 0.00 0.00 88 1012.5
20260507011904 12 328 0.0 0.0 0.00 0.00 0.00 88 1012.4
20260507011401 12 328 0.0 0.0 0.00 0.00 0.00 88 1012.5
20260507010901 12 328 0.0 0.0 0.00 0.00 0.00 87 1012.3
20260507010357 12 328 0.0 0.0 0.00 0.00 0.00 87 1012.1
20260507005854 12 328 0.0 0.0 0.00 0.00 0.00 87 1012.5
20260507005351 12 358 0.0 0.0 0.00 0.00 0.00 86 1012.6
20260507004848 12 358 0.0 0.0 0.00 0.00 0.00 86 1012.3
20260507004345 12 358 0.0 0.0 0.00 0.00 0.00 86 1012.2
20260507003842 12 358 0.0 0.0 0.00 0.00 0.00 85 1012.2
20260507003337 12 358 0.0 0.0 0.00 0.00 0.00 85 1012.0
20260507002832 13 358 0.0 0.0 0.00 0.00 0.00 84 1012.1
20260507002329 13 358 0.0 0.0 0.00 0.00 0.00 83 1012.0
20260507001826 13 358 0.0 0.0 0.00 0.00 0.00 83 1012.1
20260507001323 13 358 0.0 0.0 0.00 0.00 0.00 83 1011.9
20260507000819 13 358 0.0 0.0 0.00 0.00 0.00 83 1012.1
20260507000315 13 358 0.0 1.6 0.00 0.00 0.00 83 1012.1
20260506235812 13 357 0.0 1.6 0.00 0.00 0.00 83 1012.0
20260506235308 13 345 3.2 4.8 0.00 0.00 0.00 82 1011.8
20260506234805 13 50 0.0 1.6 0.00 0.00 0.00 82 1012.0
20260506234302 13 106 1.6 1.6 0.00 0.00 0.00 80 1012.1
20260506233800 13 14 0.0 0.0 0.00 0.00 0.00 79 1012.5
20260506233256 13 1 0.0 0.0 0.00 0.00 0.00 78 1012.4
20260506232753 13 1 0.0 0.0 0.00 0.00 0.00 76 1012.5
20260506232253 13 0 0.0 1.6 0.00 0.00 0.00 76 1012.3
20260506231751 13 63 1.6 1.6 0.00 0.00 0.00 76 1012.3
20260506231249 13 67 0.0 1.6 0.00 0.00 0.00 75 1012.3
20260506230745 14 29 0.0 1.6 0.00 0.00 0.00 74 1012.3
20260506230242 14 72 0.0 0.0 0.00 0.00 0.00 75 1012.2
20260506225739 14 68 0.0 0.0 0.00 0.00 0.00 73 1012.1
20260506225236 14 59 0.0 1.6 0.00 0.00 0.00 75 1012.0
20260506224732 14 134 0.0 0.0 0.00 0.00 0.00 73 1012.3
20260506224230 14 118 1.6 1.6 0.00 0.00 0.00 74 1012.3
20260506223726 14 82 0.0 0.0 0.00 0.00 0.00 71 1012.0
20260506223221 14 63 1.6 3.2 0.00 0.00 0.00 71 1012.0
20260506222719 14 81 1.6 1.6 0.00 0.00 0.00 72 1011.8
20260506222215 14 50 0.0 1.6 0.00 0.00 0.00 72 1012.0
20260506221713 14 49 1.6 3.2 0.00 0.00 0.00 72 1011.8
20260506221211 14 32 0.0 3.2 0.00 0.00 0.00 72 1011.8
20260506220708 14 21 3.2 3.2 0.00 0.00 0.00 70 1011.7
20260506220208 14 13 0.0 1.6 0.00 0.00 0.00 72 1011.8
20260506215705 14 356 1.6 3.2 0.00 0.00 0.00 69 1011.6
20260506215200 15 308 0.0 0.0 0.00 0.00 0.00 71 1011.7
20260506214657 14 306 0.0 0.0 0.00 0.00 0.00 69 1011.8
20260506214154 14 24 0.0 1.6 0.00 0.00 0.00 67 1011.9
20260506213653 14 22 1.6 3.2 0.00 0.00 0.00 67 1011.8
20260506213150 15 335 3.2 3.2 0.00 0.00 0.00 66 1011.7
20260506212648 15 274 4.8 6.4 0.00 0.00 0.00 66 1011.7
20260506212148 15 33 0.0 0.0 0.00 0.00 0.00 68 1011.3
20260506211643 15 116 1.6 3.2 0.00 0.00 0.00 69 1011.4
20260506211140 15 256 0.0 1.6 0.00 0.00 0.00 68 1011.4
20260506210637 15 266 1.6 3.2 0.00 0.00 0.00 69 1011.5
20260506210134 15 118 1.6 3.2 0.00 0.00 0.00 73 1011.4
20260506205631 15 349 0.0 9.7 0.00 0.00 0.00 69 1011.3
20260506205125 14 263 1.6 4.8 0.00 0.00 0.00 69 1011.0
20260506204624 14 327 3.2 4.8 0.00 0.00 0.00 70 1011.3
20260506204120 14 6 1.6 1.6 0.00 0.00 0.00 73 1011.3
20260506203619 14 53 3.2 3.2 0.00 0.00 0.00 72 1011.1
20260506203115 14 317 1.6 3.2 0.00 0.00 0.00 74 1011.0
20260506202613 13 14 1.6 3.2 0.00 0.00 0.00 74 1010.8
20260506202109 13 50 3.2 11.3 0.00 0.00 0.00 74 1010.9
20260506201607 14 351 4.8 6.4 0.00 0.00 0.00 72 1010.8
20260506201103 14 28 1.6 4.8 0.00 0.00 0.00 72 1010.9
20260506200559 15 29 0.0 4.8 0.00 0.00 0.00 71 1011.0
20260506200056 15 121 3.2 4.8 0.00 0.00 0.00 70 1010.9
20260506195553 15 12 0.0 3.2 0.00 0.00 0.00 70 1010.8
20260506195049 15 129 1.6 3.2 0.00 0.00 0.00 71 1011.0
20260506194547 14 329 3.2 6.4 0.00 0.00 0.00 75 1011.0
20260506194043 14 20 9.7 12.9 0.00 0.00 0.00 74 1011.1
20260506193541 14 50 0.0 11.3 0.00 0.00 0.00 74 1011.0
20260506193038 15 320 4.8 4.8 0.00 0.00 0.00 72 1011.0
20260506192535 14 195 1.6 3.2 0.00 0.00 0.00 74 1010.9
20260506192030 14 334 3.2 6.4 0.00 0.00 0.00 73 1011.0
20260506191527 14 47 6.4 11.3 0.00 0.00 0.00 73 1010.9
20260506191023 15 354 4.8 9.7 0.00 0.00 0.00 72 1010.9
20260506190521 15 305 3.2 4.8 0.00 0.00 0.00 73 1011.0
20260506190019 14 333 0.0 3.2 0.00 0.00 0.00 75 1011.0
20260506185515 14 309 3.2 9.7 0.00 0.00 0.00 76 1011.0
20260506185011 14 221 1.6 6.4 0.00 0.00 0.00 75 1011.0
20260506184509 14 184 1.6 3.2 0.00 0.00 0.00 76 1010.9
20260506184006 13 344 6.4 9.7 0.00 0.00 0.00 78 1011.0
20260506183501 13 289 4.8 9.7 0.00 0.00 0.00 79 1011.1
20260506182959 13 280 1.6 4.8 0.00 0.00 0.00 78 1011.2
20260506182455 13 20 1.6 3.2 0.00 0.00 0.00 79 1011.2
20260506181953 13 357 3.2 6.4 0.00 0.00 0.00 80 1011.4
20260506181451 13 13 3.2 3.2 0.00 0.00 0.00 81 1011.3
20260506180947 12 34 3.2 4.8 0.00 0.00 0.00 80 1011.3
20260506180444 12 339 4.8 9.7 0.00 0.00 0.00 82 1011.3
20260506175940 12 344 6.4 9.7 0.00 0.00 0.00 82 1011.2
20260506175437 12 37 3.2 4.8 0.00 0.00 0.00 82 1011.1
20260506174934 13 47 6.4 6.4 0.00 0.00 0.00 81 1011.1
20260506174433 13 328 4.8 9.7 0.00 0.00 0.00 82 1011.1
20260506173929 12 38 3.2 4.8 0.00 0.00 0.00 82 1011.0
20260506173426 12 27 1.6 4.8 0.00 0.00 0.00 84 1011.1
20260506172922 12 331 8.0 11.3 0.00 0.00 0.00 85 1011.1
20260506172420 12 39 3.2 9.7 0.00 0.00 0.00 85 1011.1
20260506171916 12 303 4.8 12.9 0.00 0.00 0.00 85 1011.0
20260506171414 12 278 1.6 4.8 0.00 0.00 0.00 85 1011.0
20260506170912 12 305 0.0 6.4 0.00 0.00 0.00 85 1011.3
20260506170407 12 358 3.2 6.4 0.00 0.00 0.00 85 1011.0
20260506165907 12 356 3.2 12.9 0.00 0.00 0.00 86 1011.0
20260506165404 12 291 4.8 11.3 0.00 0.00 0.00 86 1011.1
20260506164900 12 212 1.6 3.2 0.00 0.00 0.00 86 1011.1
20260506164357 12 35 4.8 11.3 0.00 0.00 0.00 86 1011.2
20260506163855 12 23 4.8 12.9 0.00 0.00 0.00 86 1011.0
20260506163349 12 37 0.0 6.4 0.00 0.00 0.00 87 1011.0
20260506162844 12 325 1.6 4.8 0.00 0.00 0.00 87 1010.9
20260506162343 12 49 3.2 3.2 0.00 0.00 0.00 87 1010.9
20260506161840 12 345 0.0 3.2 0.00 0.00 0.00 88 1010.8
20260506161337 12 29 1.6 4.8 0.00 0.00 0.00 88 1010.7
20260506160835 12 348 3.2 4.8 0.00 0.00 0.00 89 1010.5
20260506160331 12 18 1.6 6.4 0.00 0.00 0.00 90 1010.5
20260506155830 12 300 6.4 9.7 0.00 0.00 0.00 90 1010.4
20260506155327 12 20 1.6 4.8 0.00 0.00 0.00 91 1010.3
20260506153439 12 40 0.0 0.0 0.00 0.00 0.00 92 1009.8
20260506152936 12 108 0.0 0.0 0.00 0.00 0.00 91 1009.8
20260506152433 11 149 1.6 3.2 0.00 0.00 0.00 91 1009.6
20260506151931 11 52 0.0 0.0 0.00 0.00 0.00 92 1009.8
20260506151428 11 348 1.6 3.2 0.00 0.00 0.00 92 1009.7
20260506150926 11 334 1.6 1.6 0.00 0.00 0.00 92 1009.7
20260506150422 11 355 1.6 4.8 0.00 0.00 0.00 91 1009.7
20260506145919 11 326 4.8 9.7 0.00 0.00 0.00 91 1009.6
20260506145415 11 311 3.2 4.8 0.00 0.00 0.00 91 1009.6
20260506144912 11 284 3.2 11.3 0.00 0.00 0.00 91 1009.7
20260506144408 11 282 3.2 4.8 0.00 0.00 0.00 91 1009.5
20260506143908 11 320 4.8 9.7 0.00 0.00 0.00 91 1009.4
20260506143404 11 81 6.4 6.4 0.00 0.00 0.00 91 1009.5
20260506142902 11 5 3.2 17.7 0.00 0.00 0.00 91 1009.3
20260506142400 11 12 6.4 14.5 0.00 0.00 0.00 92 1008.9
20260506141858 12 319 12.9 16.1 0.00 0.00 0.00 92 1008.7
20260506141355 12 38 3.2 6.4 0.00 0.00 0.00 92 1008.5
20260506140854 12 350 8.0 9.7 0.00 0.00 0.00 93 1008.2
20260506140350 12 302 19.3 22.5 0.00 0.00 0.00 93 1007.9
20260506135847 15 290 11.3 20.9 0.00 0.00 0.00 94 1007.9
20260506135344 15 60 0.0 3.2 0.00 0.00 0.00 94 1007.8
20260506134840 15 33 1.6 1.6 0.00 0.00 0.00 94 1007.5
20260506134337 15 134 0.0 1.6 0.00 0.00 0.00 94 1007.2
20260506133834 15 106 0.0 0.0 0.00 0.00 0.00 94 1007.2
20260506133331 15 111 0.0 1.6 0.00 0.00 0.00 94 1007.1
20260506132827 15 230 0.0 6.4 0.00 0.00 0.00 94 1007.3
20260506132324 15 247 3.2 3.2 0.00 0.00 0.00 94 1007.1
20260506131822 15 152 6.4 9.7 0.00 0.00 0.00 94 1006.9
20260506131318 15 280 0.0 1.6 0.00 0.00 0.00 94 1007.2
20260506130816 14 169 1.6 4.8 0.00 0.00 0.00 94 1007.1
20260506130312 14 128 0.0 3.2 0.00 0.00 0.00 94 1007.1
20260506125810 14 130 0.0 3.2 0.00 0.00 0.00 94 1006.8
20260506125308 14 274 0.0 1.6 0.00 0.00 0.00 94 1007.0
20260506124807 14 276 1.6 3.2 0.00 0.00 0.00 94 1007.0
20260506124303 14 318 1.6 3.2 0.00 0.00 0.00 94 1007.0
20260506123801 14 182 1.6 3.2 0.00 0.00 0.00 94 1006.7
20260506123259 14 177 3.2 3.2 0.00 0.00 0.00 94 1007.0
20260506122755 14 193 0.0 3.2 0.00 0.00 0.00 94 1006.8
20260506122253 14 218 1.6 3.2 0.00 0.00 0.00 94 1006.9
20260506121751 14 233 0.0 1.6 0.00 0.00 0.00 94 1006.9
20260506121248 14 230 3.2 4.8 0.00 0.00 0.00 94 1007.2
20260506120745 14 180 0.0 0.0 0.00 0.00 0.00 94 1007.3
20260506120243 14 197 1.6 1.6 0.00 0.00 0.00 94 1007.1
20260506115740 14 209 0.0 0.0 0.00 0.00 0.00 94 1006.9
20260506115238 14 150 0.0 1.6 0.00 0.00 0.00 94 1007.0
20260506114736 14 139 1.6 3.2 0.00 0.00 0.00 94 1006.9
20260506114233 14 220 0.0 0.0 0.00 0.00 0.00 94 1006.9
20260506113731 14 23 1.6 1.6 0.00 0.00 0.00 94 1006.9
20260506113228 14 197 1.6 1.6 0.00 0.00 0.00 94 1007.1
20260506112724 14 216 0.0 3.2 0.00 0.00 0.00 94 1006.6
20260506112222 14 252 1.6 3.2 0.00 0.00 0.00 93 1006.7
20260506111720 14 282 1.6 3.2 0.00 0.00 0.00 93 1006.9
20260506111218 14 168 1.6 3.2 0.00 0.00 0.00 93 1006.7
20260506110714 14 205 1.6 1.6 0.00 0.00 0.00 93 1006.7
20260506110212 14 219 1.6 3.2 0.00 0.00 0.00 93 1006.7
20260506105708 14 144 1.6 4.8 0.00 0.00 0.00 93 1006.3
20260506105205 14 162 0.0 1.6 0.00 0.00 0.00 93 1006.6
20260506104703 14 195 1.6 1.6 0.00 0.00 0.00 93 1006.7
20260506104201 14 214 0.0 0.0 0.00 0.00 0.00 93 1006.7
20260506103657 14 214 0.0 0.0 0.00 0.00 0.00 93 1006.6
20260506103154 14 216 0.0 0.0 0.00 0.00 0.00 93 1006.4
20260506102653 14 215 1.6 1.6 0.00 0.00 0.00 93 1006.4
20260506102150 14 216 0.0 0.0 0.00 0.00 0.00 93 1006.7
20260506101646 14 217 0.0 3.2 0.00 0.00 0.00 93 1006.6
20260506101143 14 192 3.2 3.2 0.00 0.00 0.00 93 1006.7
20260506100642 14 223 0.0 6.4 0.00 0.00 0.00 93 1006.8
20260506100139 14 163 3.2 4.8 0.00 0.00 0.00 93 1006.8
20260506095638 14 232 0.0 1.6 0.00 0.00 0.00 93 1007.0
20260506095134 14 129 3.2 4.8 0.00 0.00 0.00 93 1006.8
20260506094632 14 191 0.0 4.8 0.00 0.00 0.00 92 1006.7
20260506094129 14 173 3.2 3.2 0.00 0.00 0.00 92 1006.8
20260506093628 14 204 0.0 1.6 0.00 0.00 0.00 92 1006.8
20260506093124 14 172 3.2 6.4 0.00 0.00 0.00 92 1006.8
20260506092622 14 140 3.2 11.3 0.00 0.00 0.00 92 1006.8
20260506092119 14 154 3.2 4.8 0.00 0.00 0.00 92 1006.9
20260506091617 14 192 3.2 4.8 0.00 0.00 0.00 92 1007.0
20260506091114 14 174 0.0 3.2 0.00 0.00 0.00 91 1007.0
20260506090613 14 179 1.6 3.2 0.00 0.00 0.00 91 1007.1
20260506090108 14 176 4.8 6.4 0.00 0.00 0.00 91 1007.0
20260506085605 14 184 0.0 3.2 0.00 0.00 0.00 91 1007.0
20260506085102 14 208 4.8 6.4 0.00 0.00 0.00 91 1006.9
20260506084559 14 189 6.4 11.3 0.00 0.00 0.00 91 1007.0
20260506084055 14 172 3.2 4.8 0.00 0.00 0.00 91 1007.0
20260506083552 14 168 1.6 4.8 0.00 0.00 0.00 91 1007.1
20260506083049 14 188 1.6 3.2 0.00 0.00 0.00 91 1007.2
20260506082546 14 193 1.6 4.8 0.00 0.00 0.00 91 1007.0
20260506082042 14 163 0.0 3.2 0.00 0.00 0.00 91 1007.1
20260506081540 14 108 3.2 4.8 0.00 0.00 0.00 91 1007.1
20260506081037 14 132 0.0 0.0 0.00 0.00 0.00 90 1007.6
20260506080535 14 132 0.0 0.0 0.00 0.00 0.00 90 1007.3
20260506073518 15 131 1.6 1.6 0.00 0.00 0.00 88 1007.0
20260506073015 14 348 0.0 0.0 0.00 0.00 0.00 89 1007.3
20260506072512 14 156 1.6 3.2 0.00 0.00 0.00 90 1007.3
20260506072010 14 17 1.6 1.6 0.00 0.00 0.00 90 1007.2
20260506071508 14 9 3.2 4.8 0.00 0.00 0.00 91 1007.1
20260506071005 14 64 1.6 3.2 0.00 0.00 0.00 91 1006.9
20260506070502 14 319 1.6 3.2 0.00 0.00 0.00 91 1006.6
20260506062439 14 94 0.0 1.6 0.00 0.00 0.00 90 1006.8
20260506061935 14 95 0.0 0.0 0.00 0.00 0.00 90 1006.9
20260506061432 14 95 1.6 3.2 0.00 0.00 0.00 90 1007.0
20260506060930 14 50 0.0 0.0 0.00 0.00 0.00 90 1007.3
20260506060428 14 359 0.0 1.6 0.00 0.00 0.00 90 1007.3
20260506051400 14 207 1.6 3.2 0.00 0.00 0.00 89 1008.1
20260506050857 14 324 0.0 0.0 0.00 0.00 0.00 88 1008.5
20260506050354 14 23 0.0 0.0 0.00 0.00 0.00 88 1008.5
20260506044844 14 4 1.6 1.6 0.00 0.00 0.00 87 1008.1
20260506044343 14 91 0.0 1.6 0.00 0.00 0.00 87 1008.1
20260506043839 15 92 0.0 0.0 0.00 0.00 0.00 86 1008.2
20260506043337 14 92 0.0 0.0 0.00 0.00 0.00 86 1008.1
20260506042835 14 29 0.0 1.6 0.00 0.00 0.00 86 1008.1
20260506042334 15 28 0.0 0.0 0.00 0.00 0.00 86 1008.2
20260506041832 15 27 0.0 0.0 0.00 0.00 0.00 86 1008.2
20260506041329 15 28 0.0 1.6 0.00 0.00 0.00 85 1008.3
20260506040826 15 26 0.0 0.0 0.00 0.00 0.00 85 1008.3
20260506040323 15 23 0.0 1.6 0.00 0.00 0.00 85 1008.3
20260506035819 15 357 1.6 1.6 0.00 0.03 0.03 84 1008.4
20260506035317 15 34 1.6 1.6 0.18 0.03 0.03 84 1008.5
20260506034814 15 351 0.0 0.0 0.18 0.03 0.03 83 1008.5
20260506034311 15 352 0.0 1.6 0.00 0.00 0.00 82 1008.5
20260506033808 15 16 1.6 1.6 0.00 0.00 0.00 80 1008.4
20260506033305 16 5 1.6 3.2 0.00 0.00 0.00 77 1008.2
20260506032802 16 68 0.0 1.6 0.00 0.00 0.00 78 1008.1
20260506032259 16 9 0.0 1.6 0.00 0.00 0.00 76 1008.2
20260506031755 17 346 1.6 3.2 0.00 0.00 0.00 73 1008.3
20260506031252 18 37 1.6 3.2 0.00 0.00 0.00 63 1008.5
20260506030751 17 319 4.8 4.8 0.00 0.00 0.00 61 1008.7
20260506030248 17 358 1.6 3.2 0.00 0.00 0.00 65 1008.5
20260506025745 17 8 0.0 1.6 0.00 0.00 0.00 64 1008.4
20260506025241 18 128 1.6 1.6 0.00 0.00 0.00 64 1008.2
20260506024738 18 246 0.0 1.6 0.00 0.00 0.00 59 1008.2
20260506024235 18 207 0.0 0.0 0.00 0.00 0.00 62 1008.0
20260506023731 18 148 0.0 3.2 0.00 0.00 0.00 64 1007.9
20260506023228 18 145 1.6 3.2 0.00 0.00 0.00 61 1008.1
20260506022725 19 284 0.0 1.6 0.00 0.00 0.00 53 1008.5
20260506022223 19 299 0.0 0.0 0.00 0.00 0.00 55 1008.4
20260506021720 19 2 0.0 0.0 0.00 0.00 0.00 57 1008.1
20260506021217 19 168 0.0 0.0 0.00 0.00 0.00 56 1008.3
20260506020714 20 168 0.0 3.2 0.00 0.00 0.00 57 1008.4
20260506020212 20 146 1.6 1.6 0.00 0.00 0.00 54 1008.4
20260506015709 20 141 0.0 1.6 0.00 0.00 0.00 52 1008.3
20260506015207 20 30 0.0 1.6 0.00 0.00 0.00 53 1008.3
20260506014704 20 116 0.0 4.8 0.00 0.00 0.00 51 1008.1
20260506014159 20 162 3.2 4.8 0.00 0.00 0.00 50 1008.3
20260506013658 20 299 4.8 6.4 0.00 0.00 0.00 52 1008.4
20260506013154 20 128 0.0 1.6 0.00 0.00 0.00 55 1008.4